Location: Grand Moustoir
(47.8355°N, 3.3120°W)
Time: 22:05:11
(UTC+00:00)

CENTAUR R/B - Pass Details

Date: 20 January 2020
Orbit: 766 x 1422 km, 63.5° (Epoch: 07 February)

Event Time Altitude Azimuth Distance (km) Brightness Sun altitude
Exits shadow 06:17:22 14° 319° (NW) 2,967 4.5 -15.9°
Maximum altitude 06:24:36 85° 233° (SW) 1,367 3.2 -14.8°
Drops below altitude 10° 06:33:22 10° 145° (SE) 3,509 6.2 -13.3°
Sets 06:36:20 0° 145° (SE) 4,488 6.8 -12.9°
